Home > Weather > San Juan > Past weeks

Flag for Puerto Rico Weather for the Past 2 Weeks in San Juan, Puerto Rico

Now
83 °F

Scattered clouds.


Feels Like: 86 °F
Forecast: 75 / 84 °F
Wind: 15 mph from Northeast

Location: Luis Munoz Marin

Current Time: Feb 11, 2016 at 3:56:27 PM

Latest Report: Feb 11, 2016 at 2:56 PM


Visibility: 10 mi

Pressure: 30.02 "Hg

Humidity: 61%

Dew point: 68 °F

Location of San JuanLocation

Historic Weather in San Juan — Graph

°F

San Juan Temperature Yesterday

Maximum temperature yesterday: 86 °F (at 2:56 PM)
Minimum temperature yesterday: 75 °F (at 3:56 AM)
Average temperature yesterday: 79 °F

High & Low Weather Summary for the Past Weeks

 TemperatureHumidityPressure
High87 °F (Feb 8, 1:56 PM)100% (Feb 7, 9:56 AM)30.13 "Hg (Feb 7, 9:56 AM)
Low68 °F (Feb 2, 11:56 PM)42% (Jan 29, 2:56 PM)29.91 "Hg (Feb 5, 3:56 AM)
Average78 °F74%30.03 "Hg
* Reported Jan 27 2:56 PM — Feb 11 2:56 PM, San Juan, Weather by CustomWeather, © 2016

Note: Actual official high and low records may vary slightly from our data, if they occured in-between our weather recording intervals... More about our weather records

Advertising

San Juan Weather History for the Previous 24 Hours

 ConditionsComfort  
Time TempWeatherWind HumidityBarometerVisibility
2:56 PM
Thu, Feb 11
83 °FScattered clouds.15 mph61%30.02 "Hg10 mi
1:56 PM83 °FPassing clouds.17 mph65%30.04 "Hg10 mi
12:56 PM83 °FPassing clouds.15 mph63%30.07 "Hg10 mi
11:56 AM84 °FPassing clouds.13 mph57%30.09 "Hg10 mi
10:56 AM80 °FScattered clouds.12 mph69%30.12 "Hg10 mi
9:56 AM81 °FPassing clouds.12 mph65%30.13 "Hg10 mi
8:56 AM79 °FPassing clouds.8 mph72%30.12 "Hg10 mi
7:56 AM75 °FScattered clouds.3 mph79%30.11 "Hg10 mi
6:56 AM74 °FPassing clouds.No wind82%30.09 "Hg10 mi
5:56 AM73 °FPassing clouds.No wind84%30.07 "Hg10 mi
4:56 AM73 °FClear.No wind88%30.06 "Hg10 mi
3:56 AM74 °FPassing clouds.No wind85%30.05 "Hg10 mi
2:56 AM74 °FPassing clouds.No wind85%30.06 "Hg10 mi
1:56 AM75 °FClear.No wind82%30.07 "Hg10 mi
12:56 AM76 °FClear.3 mph82%30.09 "Hg10 mi
11:56 PM
Wed, Feb 10
77 °FPassing clouds.No wind79%30.11 "Hg10 mi
10:56 PM78 °FPassing clouds.No wind76%30.12 "Hg10 mi
9:56 PM77 °FPassing clouds.3 mph79%30.12 "Hg10 mi
8:56 PM76 °FPassing clouds.6 mph85%30.11 "Hg10 mi
7:56 PM78 °FPassing clouds.6 mph76%30.09 "Hg10 mi
6:56 PM80 °FPassing clouds.9 mph69%30.08 "Hg10 mi
5:56 PM81 °FScattered clouds.12 mph67%30.06 "Hg10 mi
4:56 PM84 °FScattered clouds.12 mph61%30.04 "Hg10 mi
3:56 PM86 °FScattered clouds.8 mph57%30.03 "Hg10 mi
Weather by CustomWeather, © 2016

See weather overviewHow to use our weather pages